Home > Weather > Garland > Past weeks

Flag for USA Past Weather in Garland, Texas, USA — Yesterday and Last 2 Weeks

Now
75 °F

Clear.


Feels Like: 74 °F
Forecast: 79 / 96 °F
Wind: 7 mph from Southeast

Location: Mesquite Metro Airport

Current Time: Jul 29, 2016 at 1:05:22 AM

Latest Report: Jul 29, 2016 at 12:35 AM


Visibility: 10 mi

Pressure: 29.97 "Hg

Humidity: 93%

Dew Point: 73 °F

Location of GarlandLocation

Past Weather in Garland — Graph

°F

Garland Temperature Yesterday

Maximum temperature yesterday: 93 °F (at 1:50 PM)
Minimum temperature yesterday: 75 °F (at 11:35 PM)
Average temperature yesterday: 80 °F

High & Low Weather Summary for the Past Weeks

 TemperatureHumidityPressure
High99 °F (Jul 22, 3:50 PM)100% (Jul 18, 6:50 AM)30.22 "Hg (Jul 18, 6:50 AM)
Low70 °F (Jul 19, 10:50 AM)33% (Jul 22, 3:50 PM)29.87 "Hg (Jul 23, 6:50 PM)
Average82 °F74%30.00 "Hg
* Reported Jul 13 11:15 PM — Jul 28 11:55 PM, Garland, Weather by CustomWeather, © 2016

Note: Actual official high and low records may vary slightly from our data, if they occured in-between our weather recording intervals... More about our weather records

Advertising

Garland Weather History for the Previous 24 Hours

Scroll right to see more
 ConditionsComfort  
Time TempWeatherWind HumidityBarometerVisibility
11:55 PM
Thu, Jul 28
75 °FClear.3 mph91%29.97 "Hg10 mi
11:35 PM75 °FClear.3 mph91%29.96 "Hg10 mi
11:15 PM76 °FClear.3 mph87%29.96 "Hg10 mi
10:55 PM76 °FClear.6 mph86%29.96 "Hg10 mi
10:35 PM77 °FClear.No wind86%29.95 "Hg10 mi
10:15 PM78 °FClear.5 mph85%29.95 "Hg10 mi
9:55 PM78 °FClear.8 mph85%29.95 "Hg10 mi
9:35 PM79 °FClear.5 mph81%29.96 "Hg10 mi
9:15 PM79 °FSunny.6 mph81%29.96 "Hg10 mi
8:55 PM79 °FSunny.3 mph82%29.96 "Hg10 mi
8:35 PM80 °FSunny.13 mph79%29.94 "Hg10 mi
8:15 PM81 °FSunny.10 mph71%29.94 "Hg10 mi
7:50 PM81 °FScattered clouds.15 mph70%29.94 "Hg10 mi
6:50 PM84 °FScattered clouds.14 mph62%29.94 "Hg10 mi
5:50 PM86 °FScattered clouds.14 mph59%29.91 "Hg10 mi
4:50 PM88 °FScattered clouds.6 mph59%29.91 "Hg10 mi
3:50 PM91 °FPartly sunny.7 mph49%29.93 "Hg10 mi
3:00 PM93 °FScattered clouds.5 mph44%29.93 "Hg10 mi
1:50 PM93 °FScattered clouds.7 mph41%29.95 "Hg10 mi
12:50 PM91 °FScattered clouds.9 mph49%29.98 "Hg10 mi
11:50 AM91 °FScattered clouds.9 mph46%29.99 "Hg10 mi
10:50 AM88 °FPartly sunny.10 mph55%30.00 "Hg10 mi
9:50 AM82 °FSunny.8 mph74%30.01 "Hg10 mi
8:50 AM79 °FPartly sunny.6 mph84%30.01 "Hg10 mi
7:50 AM77 °FPartly sunny.6 mph89%30.00 "Hg10 mi
6:50 AM77 °FPassing clouds.6 mph89%29.99 "Hg10 mi
6:15 AM77 °FClear.3 mph87%29.98 "Hg10 mi
5:55 AM78 °FClear.No wind83%29.97 "Hg10 mi
5:35 AM77 °FClear.5 mph84%29.96 "Hg10 mi
5:15 AM78 °FClear.6 mph85%29.95 "Hg10 mi
4:55 AM77 °FClear.7 mph87%29.95 "Hg10 mi
4:15 AM77 °FClear.6 mph90%29.94 "Hg10 mi
3:55 AM77 °FClear.7 mph91%29.94 "Hg10 mi
3:35 AM77 °FClear.8 mph91%29.94 "Hg10 mi
3:15 AM77 °FClear.7 mph91%29.94 "Hg10 mi
2:55 AM77 °FClear.8 mph91%29.94 "Hg10 mi
2:35 AM78 °FClear.7 mph91%29.94 "Hg10 mi
2:15 AM78 °FClear.6 mph90%29.94 "Hg10 mi
1:55 AM79 °FClear.5 mph87%29.95 "Hg10 mi
1:35 AM79 °FClear.7 mph86%29.94 "Hg10 mi
1:15 AM80 °FClear.6 mph84%29.94 "Hg10 mi
Weather by CustomWeather, © 2016

See weather overviewHow to use our weather pages